TimeEDT,TemperatureF,Dew PointF,Humidity,Sea Level PressureIn,VisibilityMPH,Wind Direction,Wind SpeedMPH,Gust SpeedMPH,PrecipitationIn,Events,Conditions,WindDirDegrees,DateUTC
12:51 AM,19.0,-0.9,42,30.33,10.0,North,6.9,-,N/A,,Clear,350,2013-03-18 04:51:00
1:51 AM,19.0,-2.9,38,30.37,10.0,Variable,3.5,-,N/A,,Clear,0,2013-03-18 05:51:00
2:51 AM,18.0,-0.9,44,30.36,10.0,North,6.9,-,N/A,,Clear,350,2013-03-18 06:51:00
3:51 AM,17.1,-0.0,47,30.37,10.0,NW,3.5,-,N/A,,Clear,310,2013-03-18 07:51:00
4:51 AM,14.0,3.0,62,30.39,10.0,WNW,5.8,-,N/A,,Clear,290,2013-03-18 08:51:00
5:51 AM,15.1,1.9,56,30.42,10.0,WSW,4.6,-,N/A,,Clear,250,2013-03-18 09:51:00
6:51 AM,12.9,3.0,65,30.44,10.0,Calm,Calm,-,N/A,,Clear,0,2013-03-18 10:51:00
7:51 AM,18.0,3.9,54,30.45,10.0,West,4.6,-,N/A,,Clear,270,2013-03-18 11:51:00
8:51 AM,23.0,1.0,39,30.45,10.0,West,5.8,-,N/A,,Clear,270,2013-03-18 12:51:00
9:51 AM,25.0,-0.9,33,30.45,10.0,West,9.2,-,N/A,,Clear,280,2013-03-18 13:51:00
10:51 AM,28.0,-0.9,29,30.44,10.0,West,11.5,-,N/A,,Clear,280,2013-03-18 14:51:00
11:51 AM,30.9,-0.9,26,30.42,10.0,Variable,5.8,-,N/A,,Clear,0,2013-03-18 15:51:00
12:51 PM,30.9,-2.0,24,30.40,10.0,South,3.5,-,N/A,,Clear,190,2013-03-18 16:51:00
1:51 PM,33.1,-2.9,21,30.38,10.0,South,4.6,-,N/A,,Clear,190,2013-03-18 17:51:00
2:51 PM,34.0,9.0,35,30.35,10.0,South,5.8,-,N/A,,Clear,190,2013-03-18 18:51:00
3:51 PM,33.1,12.0,42,30.33,10.0,SSE,8.1,-,N/A,,Clear,160,2013-03-18 19:51:00
4:51 PM,32.0,14.0,48,30.33,10.0,SSE,11.5,-,N/A,,Clear,160,2013-03-18 20:51:00
5:51 PM,32.0,16.0,52,30.31,10.0,South,10.4,-,N/A,,Clear,190,2013-03-18 21:51:00
6:51 PM,30.9,17.1,57,30.30,10.0,South,6.9,-,N/A,,Clear,180,2013-03-18 22:51:00
7:51 PM,30.9,18.0,59,30.30,10.0,South,4.6,-,N/A,,Clear,180,2013-03-18 23:51:00
8:51 PM,30.9,18.0,59,30.30,10.0,South,5.8,-,N/A,,Clear,190,2013-03-19 00:51:00
9:51 PM,30.9,18.0,59,30.30,10.0,Calm,Calm,-,N/A,,Clear,0,2013-03-19 01:51:00
10:51 PM,32.0,19.0,59,30.29,10.0,Calm,Calm,-,N/A,,Partly Cloudy,0,2013-03-19 02:51:00
11:51 PM,32.0,19.9,61,30.28,10.0,Calm,Calm,-,N/A,,Overcast,0,2013-03-19 03:51:00